GW5441 Weather Reports


time (UTC)temp
C
wind
direction
speed
KPH
gust
KPH
rain 1hr
cm
rain 24hr
cm
rain mn
cm
humidity
%
barometer
mb
20260506051036 10 22 0.0 3.2 0.28 3.02 1.32 97 1009.3
20260506050535 10 0 0.0 3.2 0.28 3.00 1.30 97 1009.6
20260506045035 10 69 1.6 4.8 0.28 2.92 1.22 97 1009.6
20260506044551 10 0 0.0 6.4 0.33 2.92 1.22 97 1009.6
20260506044035 10 175 1.6 8.0 0.33 2.90 1.19 97 1009.7
20260506043540 10 44 1.6 8.0 0.36 2.90 1.17 97 1009.6
20260506043045 10 13 3.2 8.0 0.36 2.84 1.12 97 1009.6
20260506042535 10 0 3.2 8.0 0.41 2.82 1.12 97 1009.7
20260506042038 10 59 0.0 3.2 0.41 2.82 1.09 97 1009.7
20260506041555 10 0 0.0 3.2 0.38 2.79 1.07 97 1009.8
20260506041035 10 114 1.6 4.8 0.38 2.74 1.02 97 1009.9
20260506040535 10 106 0.0 4.8 0.36 2.72 1.02 97 1009.7
20260506040048 10 109 1.6 4.8 0.36 2.69 0.97 97 1009.7
20260506035538 10 0 0.0 8.0 0.36 2.64 0.94 97 1009.7
20260506035038 10 61 1.6 8.0 0.36 2.62 0.91 97 1009.7
20260506034545 10 103 3.2 8.0 0.36 2.59 0.86 97 1009.8
20260506034036 10 92 3.2 8.0 0.36 2.54 0.84 97 1010.0
20260506033537 10 110 1.6 6.4 0.33 2.54 0.81 97 1010.0
20260506033048 10 78 3.2 6.4 0.28 2.46 0.74 97 1010.1
20260506032535 10 89 1.6 6.4 0.20 2.41 0.69 97 1010.3
20260506032035 10 105 0.0 6.4 0.18 2.39 0.66 97 1010.2
20260506031546 10 70 3.2 6.4 0.18 2.39 0.66 97 1010.2
20260506031035 10 109 0.0 6.4 0.15 2.34 0.64 97 1010.3
20260506030536 10 93 1.6 6.4 0.15 2.34 0.64 97 1010.5
20260506030052 10 102 0.0 8.0 0.10 2.31 0.58 97 1010.6
20260506025535 10 66 3.2 8.0 0.08 2.26 0.56 97 1010.5
20260506025035 10 78 1.6 4.8 0.08 2.24 0.53 97 1010.6
20260506024549 10 5 0.0 4.8 0.05 2.24 0.51 97 1010.6
20260506024035 10 0 0.0 4.8 0.00 2.18 0.46 97 1010.5
20260506023536 10 46 1.6 4.8 0.00 2.18 0.46 97 1010.7
20260506023048 10 95 1.6 6.4 0.00 2.18 0.46 97 1010.8
20260506022535 10 106 1.6 6.4 0.00 2.18 0.46 97 1011.0
20260506022035 10 144 3.2 6.4 0.00 2.18 0.46 97 1011.0
20260506021548 10 112 0.0 3.2 0.00 2.18 0.46 97 1011.0
20260506021034 10 0 0.0 3.2 0.00 2.18 0.46 97 1010.9
20260506020534 10 0 0.0 6.4 0.00 2.18 0.46 97 1011.0
20260506020041 10 0 0.0 6.4 0.00 2.18 0.46 97 1011.1
20260506015535 10 109 1.6 4.8 0.00 2.16 0.46 97 1011.0
20260506015037 10 153 0.0 4.8 0.00 2.16 0.46 97 1011.0
20260506014549 10 0 0.0 3.2 0.00 2.16 0.46 97 1011.0
20260506014034 10 153 0.0 3.2 0.00 2.16 0.46 97 1011.0
20260506013534 10 0 0.0 1.6 0.08 2.16 0.46 97 1011.0
20260506013043 10 153 0.0 1.6 0.28 2.16 0.46 97 1011.1
20260506012534 10 0 0.0 1.6 0.33 2.16 0.46 97 1011.2
20260506012035 10 0 0.0 3.2 0.36 2.16 0.46 97 1011.2
20260506011547 10 0 0.0 3.2 0.36 2.16 0.46 97 1011.1
20260506011033 10 153 0.0 3.2 0.36 2.16 0.46 97 1011.3
20260506010537 10 0 0.0 0.0 0.38 2.16 0.46 97 1011.4
20260506010047 10 0 0.0 0.0 0.38 2.16 0.46 97 1011.6
20260506005537 10 0 0.0 1.6 0.38 2.16 0.46 97 1011.7
20260506005034 10 0 0.0 3.2 0.38 2.16 0.46 97 1011.5
20260506004544 10 0 0.0 3.2 0.38 2.16 0.46 97 1011.6
20260506004034 10 0 0.0 1.6 0.38 2.16 0.43 97 1011.6
20260506003535 10 0 0.0 1.6 0.30 2.06 0.36 97 1011.6
20260506003049 10 0 0.0 3.2 0.10 1.88 0.15 97 1011.7
20260506002535 10 0 0.0 3.2 0.08 1.83 0.10 97 1011.8
20260506002034 10 0 0.0 3.2 0.03 1.78 0.08 97 1011.7
20260506001608 10 0 0.0 3.2 0.03 1.78 0.08 97 1012.0
20260506001035 10 0 0.0 3.2 0.03 1.78 0.08 97 1012.0
20260506000537 10 153 0.0 0.0 0.00 1.78 0.05 97 1012.0
20260506000050 10 0 0.0 4.8 0.00 1.78 0.05 97 1012.1
20260505235535 10 0 0.0 4.8 0.00 1.78 0.05 97 1012.2
20260505235035 10 0 3.2 4.8 0.00 1.78 0.05 97 1012.2
20260505234550 10 254 0.0 3.2 0.03 1.78 0.05 97 1012.1
20260505234037 10 0 0.0 1.6 0.00 1.75 0.03 97 1012.1
20260505233534 10 0 0.0 1.6 0.00 1.75 0.03 97 1012.3
20260505233053 10 0 0.0 1.6 0.00 1.75 0.03 97 1012.2
20260505232534 10 0 0.0 3.2 0.00 1.75 0.03 97 1012.5
20260505232035 10 0 0.0 4.8 0.03 1.75 0.03 97 1012.7
20260505231552 10 252 0.0 4.8 0.03 1.75 0.03 97 1012.6
20260505231038 10 252 0.0 4.8 0.03 1.75 0.03 97 1012.7
20260505230536 10 252 1.6 4.8 0.03 1.75 0.03 97 1012.8
20260505230049 10 246 1.6 3.2 0.03 1.75 0.03 97 1012.8
20260505225537 10 0 0.0 3.2 0.03 1.75 0.03 97 1012.7
20260505225035 10 0 1.6 3.2 0.03 1.75 0.03 97 1012.8
20260505224553 10 247 0.0 4.8 0.00 1.73 0.00 97 1012.7
20260505224034 10 0 1.6 4.8 0.00 1.73 0.00 97 1012.7
20260505223534 10 246 0.0 4.8 0.03 1.73 0.00 97 1012.7
20260505223057 10 0 0.0 4.8 0.05 1.73 0.00 97 1012.7
20260505222534 10 246 1.6 4.8 0.08 1.73 0.00 97 1012.7
20260505222034 10 210 0.0 3.2 0.08 1.70 0.00 97 1012.8
20260505221554 10 210 1.6 3.2 0.08 1.70 0.00 97 1012.9
20260505221036 10 0 0.0 3.2 0.08 1.70 0.00 97 1012.9
20260505220537 10 192 0.0 1.6 0.10 1.70 0.00 97 1012.9
20260505220051 10 0 0.0 1.6 0.15 1.70 0.00 97 1013.0
20260505215535 10 0 0.0 1.6 0.18 1.70 1.70 97 1013.1
20260505215035 10 0 0.0 3.2 0.20 1.70 1.70 97 1013.1
20260505214559 10 0 0.0 3.2 0.25 1.70 1.70 97 1013.1
20260505214034 10 227 0.0 3.2 0.28 1.70 1.70 97 1013.2
20260505213535 10 0 0.0 4.8 0.28 1.68 1.68 97 1013.2
20260505213058 10 0 0.0 4.8 0.28 1.68 1.68 97 1013.3
20260505212534 10 232 0.0 4.8 0.28 1.65 1.65 97 1013.3
20260505212035 10 0 0.0 1.6 0.25 1.63 1.63 97 1013.3
20260505211558 10 0 0.0 3.2 0.25 1.63 1.63 97 1013.5
20260505211036 10 195 0.0 4.8 0.23 1.60 1.60 96 1013.4
20260505210536 10 195 0.0 4.8 0.18 1.57 1.57 96 1013.4
20260505210053 10 0 0.0 3.2 0.18 1.55 1.55 97 1013.4
20260505205535 10 0 0.0 1.6 0.15 1.52 1.52 96 1013.4
20260505205035 10 0 0.0 1.6 0.10 1.50 1.50 96 1013.4
20260505204550 10 0 0.0 1.6 0.08 1.45 1.45 96 1013.6
20260505204035 10 0 0.0 3.2 0.08 1.42 1.42 96 1013.5
20260505203535 10 0 0.0 3.2 0.05 1.40 1.40 96 1013.4
20260505203051 10 0 0.0 3.2 0.03 1.40 1.40 96 1013.5
20260505202535 10 0 0.0 3.2 0.03 1.37 1.37 96 1013.5
20260505202038 10 207 0.0 3.2 0.03 1.37 1.37 96 1013.5
20260505201559 10 207 0.0 1.6 0.05 1.37 1.37 96 1013.4
20260505201035 10 0 0.0 3.2 0.08 1.37 1.37 96 1013.4
20260505200535 10 0 0.0 3.2 0.08 1.37 1.37 96 1013.3
20260505200048 10 0 0.0 3.2 0.08 1.37 1.37 96 1013.3
20260505195534 10 253 1.6 3.2 0.08 1.37 1.37 96 1013.3
20260505195035 10 253 0.0 1.6 0.08 1.37 1.37 96 1013.3
20260505194549 10 0 0.0 1.6 0.08 1.35 1.35 96 1013.3
20260505194036 10 253 0.0 3.2 0.10 1.35 1.35 96 1013.3
20260505193535 10 0 0.0 3.2 0.13 1.35 1.35 96 1013.2
20260505193051 10 253 1.6 3.2 0.13 1.35 1.35 96 1013.3
20260505192537 10 253 0.0 3.2 0.10 1.32 1.32 96 1013.3
20260505192035 10 0 0.0 3.2 0.10 1.32 1.32 96 1013.2
20260505191552 10 0 0.0 3.2 0.08 1.30 1.30 96 1013.3
20260505191034 10 0 0.0 3.2 0.08 1.30 1.30 96 1013.1
20260505190535 10 253 0.0 4.8 0.05 1.27 1.27 96 1013.1
20260505190105 10 0 0.0 4.8 0.08 1.27 1.27 96 1013.2
20260505185536 10 253 1.6 4.8 0.08 1.27 1.27 96 1013.2
20260505185035 10 253 0.0 4.8 0.08 1.27 1.27 96 1013.1
20260505184605 10 0 0.0 4.8 0.05 1.22 1.22 96 1013.2
20260505184036 10 253 3.2 4.8 0.08 1.22 1.22 96 1013.3
20260505183539 10 265 0.0 6.4 0.05 1.22 1.22 96 1013.2
20260505183054 10 0 0.0 6.4 0.05 1.22 1.22 96 1013.2
20260505182536 10 257 3.2 6.4 0.08 1.22 1.22 96 1013.2
20260505182034 10 244 0.0 4.8 0.08 1.22 1.22 96 1013.2
20260505181547 10 258 0.0 4.8 0.08 1.22 1.22 96 1013.1
20260505181039 10 258 1.6 4.8 0.10 1.22 1.22 96 1013.1
20260505180538 10 0 0.0 3.2 0.10 1.22 1.22 96 1013.0
20260505180052 10 258 1.6 3.2 0.08 1.19 1.19 96 1013.0
20260505175535 10 257 0.0 4.8 0.08 1.19 1.19 96 1013.1
20260505175035 10 0 0.0 6.4 0.08 1.17 1.17 96 1013.2
20260505174544 10 270 3.2 6.4 0.08 1.17 1.17 96 1013.2
20260505174035 11 256 1.6 4.8 0.08 1.14 1.14 96 1013.1
20260505173534 10 225 1.6 4.8 0.08 1.14 1.14 96 1013.1
20260505173046 11 231 1.6 4.8 0.08 1.14 1.14 96 1013.2
20260505172534 10 269 1.6 4.8 0.05 1.12 1.12 95 1013.1
20260505172033 10 265 1.6 4.8 0.03 1.12 1.12 96 1013.1
20260505171544 10 263 0.0 4.8 0.03 1.12 1.12 95 1013.2
20260505171033 11 0 0.0 4.8 0.00 1.09 1.09 95 1013.2
20260505170534 11 0 1.6 4.8 0.00 1.09 1.09 95 1013.2
20260505170057 10 243 1.6 4.8 0.03 1.09 1.09 95 1013.2
20260505165535 10 0 0.0 3.2 0.03 1.09 1.09 95 1013.2
20260505165034 10 0 0.0 1.6 0.00 1.07 1.07 95 1013.2
20260505164546 10 0 0.0 1.6 0.00 1.07 1.07 95 1013.3
20260505164035 11 0 0.0 1.6 0.00 1.07 1.07 95 1013.3
20260505163533 10 0 0.0 1.6 0.03 1.07 1.07 95 1013.3
20260505163044 10 318 0.0 3.2 0.03 1.07 1.07 95 1013.4
20260505162534 11 0 0.0 4.8 0.03 1.07 1.07 95 1013.3
20260505162033 11 346 0.0 4.8 0.03 1.07 1.07 95 1013.2
20260505161545 11 0 0.0 3.2 0.03 1.07 1.07 96 1013.2
20260505161034 11 0 0.0 3.2 0.03 1.07 1.07 96 1013.3
20260505160536 11 269 0.0 3.2 0.03 1.07 1.07 95 1013.3
20260505153102 11 0 1.6 4.8 0.00 1.02 1.02 95 1013.5
20260505152532 11 225 1.6 6.4 0.00 1.02 1.02 95 1013.4
20260505152033 11 225 1.6 6.4 0.00 1.02 1.02 95 1013.5
20260505151547 11 206 0.0 3.2 0.00 1.02 1.02 95 1013.5
20260505151033 11 0 0.0 3.2 0.00 1.02 1.02 95 1013.5
20260505150539 11 206 0.0 3.2 0.00 1.02 1.02 95 1013.5
20260505150108 11 0 0.0 3.2 0.00 1.02 1.02 95 1013.6
20260505140535 11 0 0.0 3.2 0.03 1.02 1.02 93 1014.0
20260505140104 11 142 0.0 3.2 0.03 1.02 1.02 93 1013.8
20260505125035 11 0 0.0 1.6 0.00 0.99 0.99 91 1014.1
20260505124607 11 0 0.0 1.6 0.00 0.99 0.99 91 1014.2
20260505124034 11 0 0.0 1.6 0.00 0.99 0.99 91 1014.2
20260505123534 11 0 0.0 1.6 0.00 0.99 0.99 91 1014.1
20260505123112 11 0 0.0 3.2 0.00 0.99 0.99 91 1014.2
20260505122534 11 0 0.0 3.2 0.00 0.99 0.99 91 1014.1
20260505122036 11 285 0.0 3.2 0.00 0.99 0.99 91 1014.2
20260505121552 11 0 0.0 3.2 0.00 0.99 0.99 90 1014.1
20260505121038 11 42 0.0 3.2 0.00 0.99 0.99 93 1014.2
20260505120535 11 0 0.0 3.2 0.00 0.99 0.99 93 1014.0
20260505120054 11 0 0.0 3.2 0.00 0.97 0.97 92 1014.1
20260505115535 11 0 0.0 3.2 0.00 0.97 0.97 92 1014.2
20260505115034 11 0 0.0 3.2 0.00 0.97 0.97 92 1014.2
20260505114558 11 0 0.0 4.8 0.00 0.97 0.97 92 1014.2
20260505114035 11 0 0.0 6.4 0.00 0.97 0.97 92 1014.2
20260505113535 11 309 0.0 6.4 0.00 0.97 0.97 92 1014.3
20260505113050 11 0 1.6 6.4 0.00 0.97 0.97 92 1014.3
20260505112535 11 263 0.0 6.4 0.00 0.97 0.97 92 1014.4
20260505112035 11 288 1.6 9.7 0.03 0.97 0.97 92 1014.4
20260505111546 11 308 1.6 9.7 0.03 0.97 0.97 92 1014.4
20260505111035 11 273 3.2 12.9 0.03 0.97 0.97 93 1014.4
20260505110535 11 265 3.2 12.9 0.03 0.97 0.97 94 1014.4
20260505102035 11 277 0.0 8.0 0.00 0.94 0.94 94 1014.9
20260505101549 11 294 1.6 8.0 0.00 0.94 0.94 94 1014.8
20260505101035 11 0 0.0 9.7 0.00 0.94 0.94 94 1014.7
20260505100536 11 247 1.6 9.7 0.00 0.94 0.94 94 1014.7
20260505100047 11 267 1.6 8.0 0.03 0.94 0.94 95 1014.6
20260505095535 11 254 3.2 8.0 0.03 0.94 0.94 95 1014.5
20260505095034 11 245 3.2 6.4 0.03 0.94 0.94 95 1014.4
20260505094548 11 272 0.0 8.0 0.05 0.94 0.94 95 1014.4
20260505094035 11 294 1.6 9.7 0.05 0.94 0.94 95 1014.4
20260505093535 11 282 1.6 9.7 0.08 0.94 0.94 95 1014.5
20260505093051 11 0 1.6 9.7 0.08 0.94 0.94 95 1014.5
20260505092535 10 0 1.6 9.7 0.08 0.94 0.94 95 1014.4
20260505092036 10 0 3.2 9.7 0.08 0.91 0.91 95 1014.5
20260505091549 10 0 0.0 6.4 0.10 0.91 0.91 95 1014.5
20260505091035 10 285 1.6 6.4 0.13 0.91 0.91 95 1014.5
20260505090535 10 331 0.0 9.7 0.18 0.91 0.91 95 1014.5
20260505090058 10 283 1.6 9.7 0.18 0.89 0.89 95 1014.5
20260505085535 10 247 1.6 8.0 0.23 0.89 0.89 95 1014.5
20260505085035 10 310 1.6 9.7 0.28 0.89 0.89 95 1014.4
20260505084544 10 264 1.6 11.3 0.30 0.86 0.86 95 1014.4
20260505084034 10 288 3.2 11.3 0.36 0.86 0.86 95 1014.5
20260505083536 10 298 3.2 12.9 0.36 0.84 0.84 95 1014.5
20260505083106 10 320 3.2 12.9 0.41 0.84 0.84 94 1014.6
20260505082535 10 313 4.8 12.9 0.46 0.84 0.84 94 1014.6
20260505082036 10 279 3.2 8.0 0.46 0.81 0.81 94 1014.6
20260505081548 10 286 1.6 8.0 0.46 0.79 0.79 94 1014.6
20260505081036 10 0 0.0 8.0 0.43 0.74 0.74 94 1014.6
20260505080535 10 267 3.2 8.0 0.43 0.74 0.74 94 1014.6
20260505080052 10 233 3.2 11.3 0.41 0.69 0.69 94 1014.6
20260505075533 10 243 1.6 11.3 0.36 0.64 0.64 93 1014.7
20260505075034 10 222 3.2 9.7 0.36 0.58 0.58 93 1014.6
20260505074549 10 246 3.2 8.0 0.33 0.56 0.56 93 1014.6
20260505074036 10 261 1.6 4.8 0.30 0.51 0.51 93 1014.5
20260505073532 10 0 1.6 4.8 0.28 0.46 0.46 93 1014.6
20260505073055 10 0 1.6 6.4 0.25 0.41 0.41 93 1014.4
20260505072535 10 282 0.0 6.4 0.20 0.36 0.36 92 1014.4
20260505072035 10 250 0.0 4.8 0.20 0.36 0.36 93 1014.4
20260505071545 10 280 0.0 3.2 0.18 0.33 0.33 92 1014.4
20260505071034 10 284 0.0 3.2 0.18 0.30 0.30 92 1014.4
20260505070536 10 215 1.6 6.4 0.15 0.28 0.28 92 1014.5
20260505070057 10 269 1.6 6.4 0.15 0.25 0.25 91 1014.4
20260505065535 10 0 0.0 3.2 0.15 0.25 0.25 91 1014.3
20260505065036 11 0 0.0 4.8 0.13 0.23 0.23 91 1014.4
20260505064548 11 284 0.0 4.8 0.10 0.20 0.20 91 1014.5
20260505064035 11 302 0.0 4.8 0.10 0.18 0.18 90 1014.3
20260505063534 11 333 0.0 6.4 0.08 0.18 0.18 90 1014.3
20260505063051 11 282 1.6 16.1 0.08 0.15 0.15 89 1014.4
20260505062535 11 296 1.6 16.1 0.08 0.15 0.15 89 1014.3
20260505062035 11 260 6.4 14.5 0.05 0.13 0.13 88 1014.3
20260505061550 11 269 1.6 11.3 0.08 0.13 0.13 88 1014.3
20260505061035 11 257 1.6 8.0 0.05 0.10 0.10 88 1014.1
20260505060535 11 326 0.0 12.9 0.08 0.10 0.10 88 1014.1
20260505060051 11 0 0.0 12.9 0.08 0.08 0.08 88 1014.1